IRNSS-1I

Last updated on Wed Sep 17 2025 00:02:50 GMT+0000 (Coordinated Universal Time)

1 43286U 18035A 25259.59447873 .00000077 00000+0 00000+0 0 9992 2 43286 28.9428 78.4505 0020615 177.8558 8.5444 1.00273271 27335
UTC large
Height (km)
Speed (km/s)
/
Latitude / Longitude
Inclination (degrees)
Orbital Period (minutes)
Azimuth
Elevation
Range (km)
Doppler Factor

Next 0 passes for location: London (51.5072 / 0.1276)

Sorry there are no passes over London.